"datetime","# probes","# resolvers","can_ipv6","can_ipv6_prbs","can_tcp","can_tcp_prbs","can_tcp6","can_tcp6_prbs","does_ecs","does_ecs_prbs","does_flagday","does_flagday_prbs","does_rov4","does_rov4_prbs","does_rov6","does_rov6_prbs","does_qnamemin","doesnt_qnamemin","does_qnamemin_prbs","doesnt_qnamemin_prbs","does_nxdomain","doesnt_nxdomain","does_nxdomain_prbs","doesnt_nxdomain_prbs","has_ta_19036","hasnt_ta_19036","has_ta_19036_prbs","hasnt_ta_19036_prbs","has_ta_20326","hasnt_ta_20326","has_ta_20326_prbs","hasnt_ta_20326_prbs","can_rsamd5","cannot_rsamd5","broken_rsamd5","can_rsamd5_prbs","cannot_rsamd5_prbs","broken_rsamd5_prbs","can_dsa","cannot_dsa","broken_dsa","can_dsa_prbs","cannot_dsa_prbs","broken_dsa_prbs","can_rsasha1","cannot_rsasha1","broken_rsasha1","can_rsasha1_prbs","cannot_rsasha1_prbs","broken_rsasha1_prbs","can_dsansec3","cannot_dsansec3","broken_dsansec3","can_dsansec3_prbs","cannot_dsansec3_prbs","broken_dsansec3_prbs","can_rsansec3","cannot_rsansec3","broken_rsansec3","can_rsansec3_prbs","cannot_rsansec3_prbs","broken_rsansec3_prbs","can_rsasha256","cannot_rsasha256","broken_rsasha256","can_rsasha256_prbs","cannot_rsasha256_prbs","broken_rsasha256_prbs","can_rsasha512","cannot_rsasha512","broken_rsasha512","can_rsasha512_prbs","cannot_rsasha512_prbs","broken_rsasha512_prbs","can_eccgost","cannot_eccgost","broken_eccgost","can_eccgost_prbs","cannot_eccgost_prbs","broken_eccgost_prbs","can_ecdsa256","cannot_ecdsa256","broken_ecdsa256","can_ecdsa256_prbs","cannot_ecdsa256_prbs","broken_ecdsa256_prbs","can_ecdsa384","cannot_ecdsa384","broken_ecdsa384","can_ecdsa384_prbs","cannot_ecdsa384_prbs","broken_ecdsa384_prbs","can_ed25519","cannot_ed25519","broken_ed25519","can_ed25519_prbs","cannot_ed25519_prbs","broken_ed25519_prbs","can_ed448","cannot_ed448","broken_ed448","can_ed448_prbs","cannot_ed448_prbs","broken_ed448_prbs","can_gost","cannot_gost","broken_gost","can_gost_prbs","cannot_gost_prbs","broken_gost_prbs","can_sha384","cannot_sha384","broken_sha384","can_sha384_prbs","cannot_sha384_prbs","broken_sha384_prbs","is_internal","is_forwarding","is_external","is_internal_prbs","is_forwarding_prbs","is_external_prbs"
2017-06-20T23:59:58Z,82,131,124,78,129,81,121,76,89,60,0,0,0,0,0,0,0,131,0,82,0,131,0,82,0,0,0,0,0,0,0,0,29,16,86,23,26,55,44,87,0,32,62,0,130,1,0,81,18,0,44,87,0,32,62,0,130,1,0,81,18,0,130,1,0,81,18,0,130,1,0,81,18,0,42,89,0,29,64,0,130,1,0,81,19,0,130,1,0,81,19,0,0,131,0,0,82,0,0,129,2,0,81,1,131,0,0,82,20,0,130,1,0,81,19,0,33,23,75,34,23,47
2017-06-21T23:59:59Z,83,133,126,79,131,82,123,78,89,60,0,0,0,0,0,0,0,133,0,83,0,133,0,83,0,0,0,0,0,0,0,0,31,16,86,24,27,55,43,89,1,31,64,1,131,2,0,81,20,0,45,87,1,33,62,1,132,1,0,82,19,0,132,1,0,82,19,0,132,1,0,82,19,0,44,89,0,30,64,0,131,2,0,81,21,0,131,2,0,81,21,0,0,133,0,0,83,0,0,132,1,0,83,1,133,0,0,83,21,0,132,1,0,82,20,0,34,24,75,34,24,48
2017-06-22T23:59:58Z,82,132,125,78,130,81,123,77,85,56,0,0,0,0,0,0,0,132,0,82,0,132,0,82,0,0,0,0,0,0,0,0,29,18,85,22,28,54,44,87,1,32,62,1,131,1,0,81,19,0,46,86,0,33,61,0,132,0,0,82,18,0,132,0,0,82,18,0,132,0,0,82,18,0,42,89,1,30,63,1,132,0,0,82,19,0,132,0,0,82,19,0,0,132,0,0,82,0,0,132,0,0,82,0,132,0,0,82,21,0,132,0,0,82,19,0,35,22,75,35,22,48
2017-06-23T23:59:59Z,83,133,126,79,129,82,123,77,86,57,0,0,0,0,0,0,0,133,0,83,0,133,0,83,0,0,0,0,0,0,0,0,29,18,86,22,29,55,46,87,0,33,62,0,131,2,0,81,20,0,46,87,0,33,62,0,132,1,0,82,19,0,132,1,0,82,19,0,132,1,0,82,19,0,45,88,0,31,63,0,131,2,0,81,21,0,131,2,0,81,21,0,0,132,1,0,83,1,0,133,0,0,83,0,133,0,0,83,21,0,132,1,0,82,20,0,36,22,75,36,23,48
2017-06-24T23:59:59Z,83,131,124,79,129,82,122,78,85,57,0,0,0,0,0,0,0,131,0,83,0,131,0,83,0,0,0,0,0,0,0,0,29,18,84,22,28,54,44,87,0,32,63,0,129,2,0,81,19,0,46,85,0,34,61,0,129,2,0,81,19,0,129,2,0,81,19,0,129,2,0,81,19,0,43,88,0,30,64,0,129,2,0,81,20,0,129,2,0,81,20,0,0,130,1,0,82,1,0,131,0,1,83,0,131,0,0,83,21,1,129,2,0,81,20,0,35,23,73,36,23,47
2017-06-25T23:59:59Z,81,130,123,77,128,80,121,76,84,56,0,0,0,0,0,0,0,130,0,81,0,130,0,81,0,0,0,0,0,0,0,0,30,17,83,23,26,53,46,83,1,34,59,1,130,0,0,81,17,0,46,84,0,33,60,0,130,0,0,81,17,0,130,0,0,81,17,0,130,0,0,81,17,0,44,86,0,30,62,0,130,0,0,81,18,0,130,0,0,81,18,0,1,129,0,1,81,0,0,130,0,0,81,0,130,0,0,81,20,0,130,0,0,81,18,0,36,21,73,36,21,47
2017-06-26T23:59:59Z,83,133,126,79,130,82,122,77,86,57,0,0,0,0,0,0,0,133,0,83,0,133,0,83,0,0,0,0,0,0,0,0,29,19,85,22,29,54,46,87,0,33,62,0,131,2,0,81,20,0,47,86,0,34,61,0,132,1,0,82,19,0,132,1,0,82,19,0,132,1,0,82,19,0,43,89,1,31,63,1,132,1,0,82,20,0,132,1,0,82,20,0,0,133,0,0,83,0,0,132,1,0,83,1,133,0,0,83,21,0,133,0,0,83,19,0,36,22,75,36,22,48
2017-06-27T23:59:58Z,83,134,126,79,132,82,123,78,87,57,0,0,0,0,0,0,0,134,0,83,0,134,0,83,0,0,0,0,0,0,0,0,31,17,86,24,29,54,46,87,1,34,62,1,134,0,0,83,19,0,48,86,0,35,61,0,134,0,0,83,19,0,134,0,0,83,19,0,134,0,0,83,19,0,45,88,1,32,63,1,134,0,0,83,20,0,134,0,0,83,20,0,0,134,0,0,83,0,0,134,0,0,83,0,134,0,0,83,22,0,134,0,0,83,20,0,36,22,76,36,24,48
2017-06-28T23:59:58Z,85,135,127,81,133,84,125,80,90,61,0,0,0,0,0,0,0,135,0,85,0,135,0,85,0,0,0,0,0,0,0,0,30,17,88,23,30,56,45,89,1,34,64,1,134,1,0,84,20,0,44,91,0,33,65,0,134,1,0,84,20,0,132,3,0,83,21,0,134,1,0,84,20,0,43,91,1,31,66,1,135,0,0,85,20,0,135,0,0,85,20,0,0,134,1,0,85,1,0,135,0,0,85,0,135,0,0,85,23,0,135,0,0,85,20,0,37,22,76,37,25,49
2017-06-29T23:59:59Z,87,139,131,83,137,86,128,82,92,62,0,0,0,0,0,0,0,139,0,87,0,139,0,87,0,0,0,0,0,0,0,0,31,17,91,24,30,59,47,92,0,34,67,0,139,0,0,87,20,0,47,92,0,34,67,0,139,0,0,87,19,0,137,2,0,86,20,1,139,0,0,87,19,0,44,94,1,31,69,1,138,1,0,86,22,0,138,1,0,86,22,0,0,137,2,0,86,1,0,138,1,0,87,1,139,0,0,87,23,0,139,0,0,87,21,0,36,24,79,36,26,51
2017-06-30T23:59:58Z,86,136,128,82,134,85,124,81,92,61,0,0,0,0,0,0,0,136,0,86,0,136,0,86,0,0,0,0,0,0,0,0,30,16,90,23,30,58,45,91,0,33,66,0,135,1,0,85,21,0,45,91,0,33,66,0,136,0,0,86,19,0,133,2,1,84,20,2,136,0,0,86,19,0,43,93,0,30,68,0,136,0,0,86,21,0,136,0,0,86,21,0,0,135,1,0,86,1,0,135,1,0,86,1,136,0,0,86,24,0,136,0,0,86,21,0,35,23,78,35,25,51
2017-07-01T23:59:59Z,86,136,128,82,134,85,125,81,92,63,0,0,0,0,0,0,0,136,0,86,0,136,0,86,0,0,0,0,0,0,0,0,31,16,89,24,28,57,46,90,0,34,65,0,135,1,0,85,19,0,45,91,0,33,66,0,135,1,0,85,19,0,132,4,0,83,21,0,135,1,0,85,19,0,42,93,1,30,68,1,134,2,0,84,21,0,134,2,0,84,21,0,0,136,0,0,86,0,0,134,2,0,85,1,136,0,0,86,22,0,135,1,0,85,20,0,36,24,76,36,24,50
2017-07-02T23:59:59Z,84,134,126,80,132,83,123,79,90,62,0,0,0,0,0,0,0,134,0,84,0,134,0,84,0,0,0,0,0,0,0,0,30,16,88,23,29,57,43,91,0,31,66,0,133,1,0,83,20,0,43,90,1,31,66,1,134,0,0,84,19,0,134,0,0,84,19,0,134,0,0,84,19,0,40,92,2,28,67,1,133,1,0,83,21,0,133,1,0,83,21,0,0,134,0,0,84,0,1,132,1,1,84,1,134,0,0,84,22,0,134,0,0,84,20,0,34,23,77,34,25,50
2017-07-03T23:59:58Z,85,137,129,81,135,84,124,80,92,62,0,0,0,0,0,0,0,137,0,85,0,137,0,85,0,0,0,0,0,0,0,0,30,18,89,23,29,58,48,89,0,34,65,0,136,1,0,84,20,0,47,90,0,33,66,0,136,1,0,84,20,0,133,4,0,81,22,0,136,1,0,84,20,0,43,92,2,29,68,1,134,2,1,83,22,1,135,2,0,83,22,0,0,137,0,0,85,0,1,136,0,1,85,0,137,0,0,85,22,0,137,0,0,85,20,0,33,27,77,33,27,50
2017-07-04T23:59:59Z,83,134,126,79,132,82,121,78,88,60,0,0,0,0,0,0,0,134,0,83,0,134,0,83,0,0,0,0,0,0,0,0,29,18,87,22,29,56,47,87,0,33,63,0,133,1,0,82,19,0,47,87,0,33,63,0,133,1,0,82,19,0,128,6,0,79,22,0,133,1,0,82,19,0,45,89,0,30,65,0,133,1,0,82,20,0,133,1,0,82,20,0,0,133,1,0,83,1,0,133,1,0,83,1,134,0,0,83,21,0,134,0,0,83,19,0,34,24,76,34,25,49
2017-07-05T23:59:58Z,83,133,125,79,131,82,118,76,85,57,0,0,0,0,0,0,0,133,0,83,0,133,0,83,0,0,0,0,0,0,0,0,29,19,85,22,30,55,47,86,0,34,62,0,131,2,0,82,19,0,47,86,0,34,62,0,131,2,0,82,19,0,129,4,0,80,21,0,131,2,0,82,19,0,43,88,2,30,64,1,130,3,0,81,21,0,130,3,0,81,21,0,1,132,0,1,83,0,1,132,0,1,83,0,133,0,0,83,21,0,131,2,0,82,20,0,33,26,74,33,27,48
2017-07-06T23:59:58Z,82,131,123,78,128,81,112,75,84,57,0,0,0,0,0,0,0,131,0,82,0,131,0,82,0,0,0,0,0,0,0,0,29,19,83,22,28,54,45,85,1,32,63,1,130,1,0,81,18,0,47,84,0,33,62,0,130,1,0,81,18,0,129,2,0,81,18,0,130,1,0,81,18,0,45,85,1,30,63,1,129,2,0,80,20,0,129,2,0,80,20,0,0,131,0,0,82,0,1,129,1,1,81,1,131,0,0,82,21,0,130,1,0,81,19,0,35,24,72,34,25,47
2017-07-07T23:59:58Z,82,130,122,78,128,81,117,76,83,58,0,0,0,0,0,0,0,130,0,82,0,130,0,82,0,0,0,0,0,0,0,0,30,20,80,23,28,52,49,80,1,35,60,1,129,1,0,81,17,0,48,82,0,34,61,0,129,1,0,81,17,0,129,1,0,81,17,0,129,1,0,81,17,0,47,83,0,32,63,0,129,1,0,81,18,0,129,1,0,81,18,0,2,128,0,2,82,0,1,129,0,1,82,0,130,0,0,82,20,0,129,1,0,81,18,0,35,25,70,35,26,46
2017-07-08T23:59:59Z,84,132,124,80,130,83,119,78,83,56,0,0,0,0,0,0,0,132,0,84,0,132,0,84,0,0,0,0,0,0,0,0,29,22,81,22,31,53,46,86,0,33,64,0,128,4,0,80,21,0,48,84,0,34,63,0,129,3,0,81,19,0,129,3,0,81,19,0,129,3,0,81,19,0,46,86,0,31,65,0,127,5,0,79,22,0,127,5,0,79,22,0,1,131,0,1,84,0,2,130,0,1,84,0,132,0,0,84,21,1,129,3,0,81,21,0,36,25,71,36,26,48
2017-07-09T23:59:58Z,84,132,124,80,129,83,118,77,88,59,0,0,0,0,0,0,0,132,1,84,0,131,0,84,0,0,0,0,0,0,0,0,29,18,85,22,28,56,45,87,0,33,63,0,129,3,0,81,19,0,42,89,1,31,65,1,129,3,0,81,18,0,129,3,0,81,18,0,129,3,0,81,18,0,41,90,1,29,66,2,130,2,0,82,19,0,130,2,0,82,19,0,0,132,0,0,84,1,0,132,0,0,84,1,132,0,0,84,20,0,129,3,0,81,19,0,34,25,73,36,24,47
2017-07-10T23:59:59Z,84,133,125,80,131,83,120,77,88,58,0,0,0,0,0,0,0,133,1,84,0,133,0,84,0,0,0,0,0,0,0,0,27,17,89,21,28,57,43,90,0,32,64,0,132,1,0,83,18,0,44,89,0,32,64,0,132,1,0,83,18,0,132,1,0,83,18,0,132,1,0,83,18,0,42,91,0,29,66,0,132,1,0,83,19,0,132,1,0,83,19,0,0,133,0,0,84,0,0,131,2,0,83,1,133,0,0,84,21,0,131,2,0,82,20,0,33,23,77,35,23,49
2017-07-11T23:59:59Z,84,132,124,80,130,83,119,77,86,57,0,0,0,0,0,0,0,132,1,84,0,132,0,84,0,0,0,0,0,0,0,0,29,17,86,23,27,57,45,87,0,33,62,0,130,2,0,82,18,0,44,88,0,32,63,0,130,2,0,82,18,0,130,2,0,82,18,0,130,2,0,82,18,0,42,90,0,29,65,1,130,2,0,82,19,0,131,1,0,83,18,0,0,132,0,0,84,1,0,130,2,0,83,2,132,0,0,84,20,1,131,1,0,83,18,0,33,24,75,36,25,48
2017-07-12T23:59:59Z,83,130,122,79,128,82,118,77,87,59,0,0,0,0,0,0,0,130,1,83,0,130,0,83,0,0,0,0,0,0,0,0,26,22,82,20,30,55,42,88,0,31,63,0,126,4,0,80,19,0,42,87,1,31,63,1,125,5,0,79,20,0,125,5,0,79,20,0,125,5,0,79,20,0,41,88,1,28,65,2,128,2,0,81,19,0,128,2,0,81,19,0,0,129,1,0,83,2,0,130,0,0,83,1,130,0,0,83,21,1,126,4,0,80,21,0,31,27,72,33,26,48
2017-07-13T23:59:58Z,84,132,123,80,129,83,118,77,85,58,0,0,0,0,0,0,1,131,2,84,0,132,0,84,0,0,0,0,0,0,0,0,29,20,83,22,30,56,46,86,0,34,63,0,130,2,0,82,18,0,47,84,1,35,61,1,130,2,0,82,18,0,129,3,0,81,19,0,129,3,0,81,19,0,45,87,0,31,64,1,129,3,0,81,20,0,129,3,0,81,20,0,0,132,0,0,84,1,1,131,0,1,84,1,132,0,0,84,20,1,131,1,0,83,18,0,34,25,73,35,25,48
2017-07-14T23:59:59Z,83,130,121,79,128,82,117,77,85,59,0,0,0,0,0,0,0,130,1,83,0,130,1,83,0,0,0,0,0,0,0,0,28,20,82,21,29,56,45,85,0,34,62,1,127,3,0,81,18,1,45,85,0,33,62,1,127,3,0,81,18,1,127,3,0,81,18,1,127,3,0,81,18,1,43,87,0,30,64,2,128,2,0,82,18,1,128,2,0,82,18,1,0,130,0,0,83,2,0,130,0,0,83,2,130,0,0,83,19,3,127,3,0,81,19,0,31,27,72,33,26,47
2017-07-15T23:59:58Z,81,128,119,77,126,80,115,75,82,56,0,0,0,0,0,0,0,128,1,81,0,128,0,81,0,0,0,0,0,0,0,0,29,19,80,22,28,54,47,81,0,34,59,0,127,1,0,80,17,0,47,81,0,34,59,0,127,1,0,80,17,0,127,1,0,80,17,0,127,1,0,80,17,0,43,83,2,30,61,2,128,0,0,81,17,0,128,0,0,81,17,0,0,128,0,0,81,1,0,128,0,0,81,1,128,0,0,81,19,1,128,0,0,81,17,0,34,23,71,35,23,46
2017-07-16T23:59:59Z,84,131,122,80,129,83,118,78,86,59,0,0,0,0,0,0,0,131,1,84,0,131,0,84,0,0,0,0,0,0,0,0,29,21,81,22,30,55,46,85,0,34,62,0,127,4,0,81,19,0,46,85,0,34,62,0,128,3,0,82,18,0,128,3,0,82,18,0,128,3,0,82,18,0,44,87,0,31,64,1,127,4,0,81,20,0,127,4,0,81,20,0,0,131,0,0,84,1,0,131,0,0,84,1,131,0,0,84,19,1,127,4,0,81,20,0,34,25,72,36,24,47
2017-07-17T23:59:59Z,83,132,124,80,130,82,119,77,91,62,0,0,0,0,0,0,0,132,1,83,0,132,0,83,0,0,0,0,0,0,0,0,28,16,88,21,28,58,42,90,0,31,64,0,131,1,0,82,18,0,42,90,0,31,64,0,131,1,0,82,18,0,131,1,0,82,18,0,131,1,0,82,18,0,40,92,0,28,66,1,130,2,0,81,20,0,130,2,0,81,20,0,1,131,0,1,83,1,0,132,0,0,83,1,132,0,0,83,21,1,130,2,0,81,20,0,31,22,79,35,24,50
2017-07-18T23:59:59Z,86,139,131,83,137,85,128,82,92,61,0,0,0,0,0,0,0,139,1,86,0,139,0,86,0,0,0,0,0,0,0,0,28,21,90,21,30,59,47,92,0,33,65,0,135,4,0,83,20,0,48,91,0,34,64,0,136,3,0,84,19,0,136,3,0,84,19,0,136,3,0,84,19,0,44,93,2,30,66,2,137,2,0,84,20,0,137,2,0,84,20,0,2,137,0,1,85,1,0,139,0,0,86,1,139,0,0,86,20,1,137,2,0,85,19,0,35,25,79,35,25,50
2017-07-19T23:59:59Z,85,136,128,82,134,84,124,80,90,60,0,0,0,0,0,0,0,136,1,85,0,136,0,85,0,0,0,0,0,0,0,0,28,20,88,21,31,57,46,90,0,33,65,0,134,2,0,83,20,0,46,90,0,33,65,0,135,1,0,84,19,0,134,2,0,83,20,0,134,2,0,83,20,0,44,92,0,30,67,0,133,3,0,82,22,0,133,3,0,82,22,0,0,135,1,0,85,1,1,135,0,1,85,0,136,0,0,85,23,0,135,1,0,84,20,0,32,25,79,34,26,50
2017-07-20T23:59:59Z,84,134,126,81,132,83,123,80,89,60,0,0,0,0,0,0,0,134,1,84,0,134,0,84,0,0,0,0,0,0,0,0,28,18,88,21,28,59,44,90,0,31,65,0,132,2,0,82,19,0,45,89,0,32,64,0,132,2,0,82,19,0,131,3,0,81,20,0,131,3,0,81,20,0,43,91,0,29,66,1,131,3,0,81,21,0,131,3,0,81,21,0,0,134,0,0,84,1,0,134,0,0,84,1,134,0,0,84,20,2,134,0,0,84,18,0,32,24,78,33,25,50
2017-07-21T23:59:59Z,82,133,126,79,131,81,123,78,89,59,0,0,0,0,0,0,0,133,1,82,0,133,0,82,0,0,0,0,0,0,0,0,27,18,88,20,27,58,44,89,0,31,62,0,132,1,0,81,18,0,45,88,0,32,61,0,133,0,0,82,17,0,132,1,0,81,18,0,132,1,0,81,18,0,43,90,0,29,63,1,131,2,0,80,20,0,131,2,0,80,20,0,0,133,0,0,82,1,0,133,0,0,82,1,133,0,0,82,20,1,131,2,0,80,20,0,32,22,79,33,23,50
2017-07-22T23:59:59Z,85,138,131,82,136,84,128,81,93,61,0,0,0,0,0,0,0,138,1,85,0,138,0,85,0,0,0,0,0,0,0,0,27,18,93,20,28,60,44,94,0,31,66,0,136,2,0,83,20,0,46,92,0,32,65,0,136,2,0,83,20,0,136,2,0,83,20,0,136,2,0,83,20,0,42,95,1,28,68,1,137,1,0,84,20,0,137,1,0,84,20,0,1,137,0,1,85,0,0,138,0,0,85,0,138,0,0,85,21,0,136,2,0,83,21,0,33,24,81,33,24,51
2017-07-23T23:59:59Z,83,134,127,80,132,82,124,79,91,60,0,0,0,0,0,0,1,133,2,82,0,134,0,83,0,0,0,0,0,0,0,0,27,19,88,20,28,57,43,91,0,30,65,0,131,3,0,80,20,0,44,90,0,31,64,0,132,2,0,81,19,0,132,2,0,81,19,0,131,3,0,80,20,0,42,92,0,28,66,0,132,2,0,81,20,0,132,2,0,81,20,0,0,134,0,0,83,0,0,134,0,0,83,0,134,0,0,83,21,0,133,1,0,82,19,0,32,23,79,33,22,50
2017-07-24T23:59:59Z,80,131,124,77,129,79,121,76,86,57,0,0,0,0,0,0,0,131,1,80,0,131,0,80,0,0,0,0,0,0,0,0,27,20,84,19,28,54,45,86,0,30,61,0,127,4,0,77,20,0,46,85,0,31,60,0,130,1,0,79,18,0,128,3,0,78,19,0,129,2,0,79,19,0,42,89,0,28,63,0,127,4,0,77,21,0,129,2,0,78,19,0,0,131,0,0,80,0,0,131,0,0,80,0,131,0,0,80,21,0,129,1,1,78,18,1,33,21,77,32,20,49
2017-07-25T23:59:59Z,82,133,126,79,131,81,123,78,91,60,0,0,0,0,0,0,0,133,1,82,0,133,0,82,0,0,0,0,0,0,0,0,27,17,89,20,25,59,43,90,0,30,63,0,132,1,0,81,17,0,44,89,0,31,62,0,132,1,0,81,17,0,131,2,0,80,18,0,131,2,0,80,18,0,42,91,0,28,64,1,131,2,0,80,19,0,131,2,0,80,19,0,0,133,0,0,82,1,0,133,0,0,82,1,133,0,0,82,19,1,132,1,0,81,18,0,30,24,79,31,24,50
2017-07-26T23:59:59Z,84,136,129,81,134,83,126,80,90,59,0,0,0,0,0,0,0,136,1,84,0,136,0,84,0,0,0,0,0,0,0,0,27,19,90,20,29,58,43,93,0,30,66,0,133,3,0,81,21,0,43,93,0,30,66,0,133,3,0,81,21,0,133,3,0,81,21,0,133,3,0,81,21,0,41,95,0,27,68,0,134,2,0,82,21,0,134,2,0,82,21,0,0,136,0,0,84,0,0,136,0,0,84,0,136,0,0,84,22,0,135,1,0,83,20,0,33,22,81,34,22,51
2017-07-27T23:59:58Z,82,133,126,79,130,80,123,78,91,60,0,0,0,0,0,0,0,133,1,82,0,132,0,81,0,0,0,0,0,0,0,0,28,15,90,21,27,58,43,90,0,31,63,0,133,0,0,82,19,0,42,91,0,30,64,0,132,1,0,81,20,0,132,1,0,81,19,0,132,1,0,81,20,0,39,94,0,26,67,0,131,2,0,80,22,0,131,2,0,80,22,0,0,133,0,0,82,0,0,133,0,0,82,0,133,0,0,82,22,0,132,1,0,81,21,0,32,19,82,33,20,52
2017-07-28T23:59:59Z,82,134,127,79,132,81,124,78,91,59,0,0,0,0,0,0,0,134,1,82,0,134,0,82,0,0,0,0,0,0,0,0,29,16,89,21,26,58,43,91,0,31,63,0,132,2,0,80,19,0,44,90,0,31,62,0,133,1,0,81,18,0,134,0,0,82,17,0,133,1,0,81,18,0,40,94,0,27,65,1,132,2,0,80,20,0,133,1,0,81,19,0,0,134,0,0,82,1,0,134,0,0,82,1,134,0,0,82,20,1,132,2,0,80,20,0,34,19,81,34,20,51
2017-07-29T23:59:59Z,79,130,124,77,128,78,121,76,87,57,0,0,0,0,0,0,0,130,1,79,0,130,0,79,0,0,0,0,0,0,0,0,29,15,86,21,26,55,42,88,0,30,60,0,130,0,0,79,18,0,41,87,2,29,60,1,130,0,0,79,18,0,130,0,0,79,18,0,129,0,1,78,18,1,39,91,0,26,63,0,129,1,0,78,20,0,129,1,0,78,20,0,0,129,1,0,79,1,0,129,1,0,79,1,130,0,0,79,21,0,130,0,0,79,19,0,33,19,78,33,21,49
2017-07-30T23:59:59Z,81,131,125,79,128,80,121,78,92,62,0,0,0,0,0,0,0,131,1,81,0,131,0,81,0,0,0,0,0,0,0,0,26,16,89,19,28,58,40,91,0,28,64,0,128,3,0,78,22,0,40,91,0,28,64,0,129,2,0,79,21,0,129,2,0,79,21,0,129,2,0,79,21,0,38,93,0,25,66,0,129,2,0,79,22,0,129,2,0,79,22,0,0,131,0,0,81,0,0,131,0,0,81,0,131,0,0,81,22,0,129,2,0,79,22,0,31,20,80,33,21,51
2017-07-31T23:59:59Z,81,131,125,79,129,80,121,77,93,61,0,0,0,0,0,0,0,131,1,81,0,131,0,81,0,0,0,0,0,0,0,0,27,14,90,20,25,59,40,91,0,29,62,0,131,0,0,81,17,0,40,91,0,29,62,0,130,1,0,80,18,0,130,1,0,80,18,0,130,1,0,80,18,0,38,93,0,26,64,1,131,0,0,81,18,0,131,0,0,81,18,0,0,131,0,0,81,1,0,131,0,0,81,1,131,0,0,81,20,1,130,1,0,80,19,0,29,21,81,31,22,51
2017-08-01T23:59:58Z,80,132,126,78,130,79,123,77,92,60,0,0,0,0,0,0,0,132,1,80,0,132,0,80,0,0,0,0,0,0,0,0,26,16,90,19,24,59,40,92,0,28,62,0,130,2,0,79,17,0,40,92,0,28,62,0,130,2,0,79,17,0,130,2,0,79,17,0,130,2,0,79,17,0,39,93,0,26,63,1,129,3,0,78,19,0,129,3,0,78,19,0,0,132,0,0,80,1,0,132,0,0,80,1,132,0,0,80,19,1,130,2,0,79,18,0,29,23,80,29,23,50
2017-08-02T23:59:58Z,83,136,130,81,134,82,125,79,91,60,0,0,0,0,0,0,0,136,1,83,0,136,1,83,0,0,0,0,0,0,0,0,26,21,89,19,29,57,40,96,0,28,66,1,129,7,0,78,22,1,41,95,0,29,65,0,130,6,0,79,21,0,129,7,0,78,22,0,129,7,0,78,22,0,39,97,0,26,67,1,129,7,0,78,23,1,129,7,0,78,23,0,0,136,0,0,83,0,0,136,0,0,83,0,136,0,0,83,20,0,130,6,0,79,21,1,32,24,80,31,24,50
2017-08-03T23:59:59Z,81,133,127,79,131,80,124,78,92,61,0,0,0,0,0,0,1,132,2,81,0,133,1,81,0,0,0,0,0,0,0,0,26,17,90,19,27,58,40,93,0,28,64,1,130,3,0,79,20,1,41,92,0,29,63,0,131,2,0,80,19,0,130,3,0,79,20,0,130,3,0,79,20,0,39,94,0,26,65,1,129,4,0,78,21,1,129,4,0,78,21,0,0,133,0,0,81,0,0,133,0,0,81,0,133,0,0,81,21,0,131,2,0,80,20,1,30,22,81,30,23,51
2017-08-04T23:59:57Z,80,130,124,78,128,79,121,77,91,60,0,0,0,0,0,0,0,130,1,80,0,130,0,80,0,0,0,0,0,0,0,0,26,16,88,19,25,58,41,89,0,29,61,0,129,1,0,79,17,0,41,89,0,29,61,0,129,1,0,79,17,0,128,2,0,78,18,0,128,2,0,78,18,0,38,92,0,25,64,1,128,2,0,78,19,0,128,2,0,78,19,0,0,130,0,0,80,1,0,130,0,0,80,1,130,0,0,80,20,1,128,2,0,78,19,0,30,21,79,30,23,50
2017-08-05T23:59:58Z,83,135,129,81,133,82,124,79,92,61,0,0,0,0,0,0,0,135,1,83,0,135,0,83,0,0,0,0,0,0,0,0,26,21,88,19,28,58,41,94,0,29,64,0,129,6,0,79,20,0,41,94,0,29,64,0,129,6,0,79,20,0,128,7,0,78,21,0,128,7,0,78,21,0,39,96,0,26,66,1,128,7,0,78,22,0,128,7,0,78,22,0,0,135,0,0,83,1,0,135,0,0,83,1,135,0,0,83,19,1,132,3,0,81,19,0,32,24,79,31,24,50
2017-08-06T23:59:58Z,81,132,126,79,130,80,123,78,91,61,0,0,0,0,0,0,0,132,1,81,0,132,0,81,0,0,0,0,0,0,0,0,26,17,89,19,25,59,43,89,0,30,61,0,132,0,0,81,16,0,43,89,0,30,61,0,132,0,0,81,16,0,131,1,0,81,17,0,130,2,0,80,17,0,41,91,0,27,63,1,129,3,0,79,19,0,129,3,0,79,19,0,0,132,0,0,81,1,0,132,0,0,81,1,132,0,0,81,19,1,132,0,0,81,17,0,29,23,80,29,23,51
2017-08-07T23:59:59Z,84,135,129,82,133,83,125,80,94,63,0,0,0,0,0,0,0,135,1,84,0,135,0,84,0,0,0,0,0,0,0,0,26,20,89,19,28,59,41,94,0,29,65,0,130,5,0,80,20,0,41,94,0,29,65,0,130,5,0,80,20,0,130,5,0,80,20,0,130,5,0,80,20,0,38,97,0,25,68,1,130,5,0,80,21,0,130,5,0,80,21,0,0,135,0,0,84,1,0,135,0,0,84,1,135,0,0,84,21,1,127,8,0,78,24,0,30,25,80,30,26,51
2017-08-08T23:59:58Z,82,134,128,80,132,81,125,79,89,61,0,0,0,0,0,0,0,134,1,82,0,134,0,82,0,0,0,0,0,0,0,0,26,19,89,19,26,59,40,94,0,28,64,0,131,3,0,80,18,0,42,92,0,29,63,0,131,3,0,80,18,0,131,3,0,80,18,0,129,5,0,79,19,0,40,94,0,26,65,1,129,5,0,79,20,0,129,5,0,79,20,0,0,134,0,0,82,1,0,134,0,0,82,1,134,0,0,82,20,1,129,5,0,79,19,0,32,22,80,31,22,51
2017-08-09T23:59:58Z,81,132,126,79,130,80,121,77,89,59,0,0,0,0,0,0,0,132,1,81,0,132,0,81,0,0,0,0,0,0,0,0,26,16,90,19,23,59,41,91,0,29,61,0,131,1,0,80,15,0,40,92,0,28,62,0,128,4,0,78,17,0,127,5,0,77,18,0,128,4,0,78,17,0,38,94,0,25,64,1,127,5,0,77,19,0,127,5,0,77,19,0,0,132,0,0,81,1,0,132,0,0,81,1,132,0,0,81,18,1,126,6,0,77,19,0,32,21,79,31,22,50
2017-08-10T23:59:58Z,79,129,123,77,127,78,120,76,89,59,0,0,0,0,0,0,0,129,1,79,0,129,0,79,0,0,0,0,0,0,0,0,26,14,89,20,21,59,39,90,0,28,61,0,129,0,0,79,14,0,40,89,0,29,60,0,129,0,0,79,14,0,129,0,0,79,14,0,129,0,0,79,14,0,38,91,0,25,62,1,129,0,0,79,15,0,129,0,0,79,15,0,0,129,0,0,79,1,0,129,0,0,79,1,129,0,0,79,18,1,126,3,0,77,17,0,28,21,80,28,23,51
2017-08-11T23:59:58Z,80,130,124,78,128,79,121,77,88,59,0,0,0,0,0,0,0,130,1,80,0,130,0,80,0,0,0,0,0,0,0,0,25,19,86,18,25,57,40,90,0,28,61,0,128,2,0,78,16,0,40,90,0,28,61,0,126,4,0,77,17,0,126,4,0,77,17,0,126,4,0,77,17,0,38,92,0,25,63,1,126,4,0,77,18,0,126,4,0,77,18,0,0,130,0,0,80,1,0,130,0,0,80,1,130,0,0,80,18,1,123,7,0,75,19,0,33,20,77,32,21,49
2017-08-12T23:59:59Z,78,128,122,76,126,77,119,75,89,59,0,0,0,0,0,0,0,128,1,78,0,128,0,78,0,0,0,0,0,0,0,0,26,14,88,19,21,58,40,88,0,28,59,0,128,0,0,78,14,0,39,89,0,27,60,0,128,0,0,78,14,0,128,0,0,78,14,0,128,0,0,78,14,0,37,91,0,24,62,1,127,1,0,77,16,0,127,1,0,77,16,0,0,128,0,0,78,1,0,128,0,0,78,1,128,0,0,78,17,1,124,4,0,75,16,0,29,22,77,29,22,49
2017-08-13T23:59:58Z,80,131,125,78,129,79,122,76,92,61,0,0,0,0,0,0,1,130,2,79,0,131,0,80,0,0,0,0,0,0,0,0,27,16,88,19,23,59,39,92,0,27,62,1,129,2,0,78,16,1,41,90,0,28,61,1,130,1,0,79,15,1,130,1,0,79,15,1,130,1,0,79,15,1,37,93,1,24,64,3,129,2,0,78,17,1,129,2,0,78,17,1,0,129,2,0,79,3,0,131,0,0,80,2,131,0,0,80,17,2,127,4,0,77,18,1,29,25,77,28,26,49
2017-08-14T23:59:59Z,83,134,128,81,132,82,126,80,97,64,0,0,0,0,0,0,0,134,1,83,0,134,0,83,0,0,0,0,0,0,0,0,27,13,94,20,24,63,40,94,0,29,65,1,133,1,0,82,18,1,40,94,0,29,65,1,133,1,0,82,18,1,133,1,0,82,18,1,133,1,0,82,18,1,38,96,0,26,67,2,130,4,0,80,21,1,130,4,0,80,21,1,0,134,0,0,83,2,0,134,0,0,83,2,134,0,0,83,20,2,130,4,0,80,20,1,27,27,80,29,27,52
2017-08-15T23:59:59Z,83,133,127,81,131,82,124,80,94,63,0,0,0,0,0,0,0,133,1,83,0,133,0,83,0,0,0,0,0,0,0,0,28,13,92,21,25,63,42,91,0,31,64,1,133,0,0,83,17,1,41,92,0,30,65,1,132,1,0,82,18,1,132,1,0,82,18,1,132,1,0,82,18,1,39,94,0,27,66,2,131,2,0,81,20,1,131,2,0,81,20,1,1,132,0,1,83,2,0,133,0,0,83,2,133,0,0,83,21,2,130,3,0,80,20,1,30,23,80,32,23,52
2017-08-16T23:59:59Z,82,133,127,80,131,81,124,79,95,63,0,0,0,0,0,0,0,133,0,82,0,133,0,82,0,0,0,0,0,0,0,0,28,12,93,21,24,62,39,94,0,28,65,1,133,0,0,82,18,1,39,94,0,28,65,1,133,0,0,82,18,1,133,0,0,82,18,1,133,0,0,82,18,1,38,95,0,26,66,1,133,0,0,82,19,1,133,0,0,82,19,1,0,133,0,0,82,1,0,133,0,0,82,1,133,0,0,82,22,1,133,0,0,82,19,1,27,26,80,30,25,52
2017-08-17T23:59:59Z,82,133,127,80,131,81,123,79,94,62,0,0,0,0,0,0,0,133,0,82,0,133,0,82,0,0,0,0,0,0,0,0,26,14,93,19,25,62,38,95,0,27,66,1,131,2,0,80,19,1,39,94,0,28,65,1,132,1,0,81,18,1,132,1,0,81,18,1,130,3,0,80,19,1,37,96,0,25,67,1,129,4,0,79,21,1,129,4,0,79,21,1,0,133,0,0,82,1,0,133,0,0,82,1,133,0,0,82,21,1,130,3,0,80,20,1,27,26,80,29,26,52
2017-08-18T23:59:58Z,82,132,126,80,130,81,122,78,96,64,0,0,0,0,0,0,0,132,0,82,0,132,0,82,0,0,0,0,0,0,0,0,25,12,95,18,25,63,37,94,1,27,66,2,132,0,0,82,17,1,37,94,1,27,65,2,132,0,0,82,17,1,132,0,0,82,17,1,132,0,0,82,17,1,35,97,0,24,68,1,131,1,0,81,19,1,131,1,0,81,19,1,0,132,0,0,82,1,1,131,0,1,81,1,132,0,0,82,21,1,131,1,0,81,19,1,25,27,80,28,27,52
2017-08-19T23:59:58Z,83,135,129,81,133,82,126,80,101,67,0,0,0,0,0,0,0,135,0,83,0,135,0,83,0,0,0,0,0,0,0,0,28,14,93,20,25,62,37,98,0,27,67,1,132,3,0,81,19,1,39,96,0,28,66,1,132,3,0,81,19,1,132,3,0,81,19,1,132,3,0,81,19,1,37,98,0,25,68,1,132,3,0,81,20,1,132,3,0,81,20,1,0,135,0,0,83,1,0,134,1,0,83,2,135,0,0,83,20,1,131,4,0,80,21,1,26,29,80,28,28,52
2017-08-20T23:59:59Z,83,134,128,81,132,82,125,80,100,66,0,0,0,0,0,0,0,134,0,83,0,134,0,83,0,0,0,0,0,0,0,0,26,15,93,19,26,62,36,98,0,26,68,1,129,5,0,79,21,1,37,97,0,27,67,1,130,4,0,80,20,1,130,4,0,80,20,1,130,4,0,80,20,1,35,99,0,24,69,1,130,4,0,80,21,1,130,4,0,80,21,1,0,134,0,0,83,1,0,134,0,0,83,1,134,0,0,83,20,1,134,0,0,83,18,1,25,29,80,28,27,52